This is the latest recevied weather packets stored in our database for station/object WC4PEM-7. If no packets are shown the sender has not sent any weather packets the latest 10 day(s).
| Time | Temp. | Humidity | Pressure | Rain* | Wind** | Luminosity | Snow |
|---|---|---|---|---|---|---|---|
| 1777839821 | 24.44° C | 66% | 1015.4 hPa | 0 mm | - | - | - |
| 1777839521 | 24.44° C | 68% | 1015.5 hPa | 0 mm | - | - | - |
| 1777839452 | 24.44° C | 69% | 1015.5 hPa | 0 mm | - | - | - |
| 1777839221 | 24.44° C | 69% | 1015.5 hPa | 0 mm | - | - | - |
| 1777838921 | 24.44° C | 68% | 1015.6 hPa | 0 mm | - | - | - |
| 1777838621 | 25° C | 67% | 1015.5 hPa | 0 mm | - | - | - |
| 1777838586 | 25° C | 68% | 1015.7 hPa | 0 mm | - | - | - |
| 1777838321 | 25° C | 68% | 1015.7 hPa | 0 mm | - | - | - |
| 1777838021 | 25° C | 69% | 1015.8 hPa | 0 mm | - | - | - |
| 1777837778 | 25° C | 68% | 1016 hPa | 0 mm | - | - | - |
| 1777837721 | 25° C | 66% | 1015.8 hPa | 0 mm | - | - | - |
| 1777837421 | 25° C | 68% | 1016 hPa | 0 mm | - | - | - |
| 1777837121 | 24.44° C | 68% | 1015.9 hPa | 0 mm | - | - | - |
| 1777837120 | 24.44° C | 67% | 1016 hPa | 0 mm | - | - | - |
| 1777836821 | 24.44° C | 67% | 1016 hPa | 0 mm | - | - | - |
| 1777836738 | 24.44° C | 70% | 1016.2 hPa | 0 mm | - | - | - |
| 1777836521 | 24.44° C | 70% | 1016.2 hPa | 0 mm | - | - | - |
| 1777836431 | 24.44° C | 69% | 1016.3 hPa | 0 mm | - | - | - |
| 1777836221 | 24.44° C | 69% | 1016.3 hPa | 0 mm | - | - | - |
| 1777835921 | 23.89° C | 70% | 1016.2 hPa | 0 mm | - | - | - |
| 1777835621 | 23.89° C | 67% | 1016.3 hPa | 0 mm | - | - | - |
| 1777835321 | 23.89° C | 69% | 1016.6 hPa | 0 mm | - | - | - |
| 1777835021 | 23.89° C | 69% | 1016.6 hPa | 0 mm | - | - | - |
| 1777834721 | 23.89° C | 68% | 1016.8 hPa | 0 mm | - | - | - |
| 1777834580 | 24.44° C | 69% | 1016.8 hPa | 0 mm | - | - | - |
* Rain latest hour (hover to see other rain measurements)
** Current wind speed in m/s (hover to see current wind gust speed)